Main page
METAR-TAF:

METAR-TAF

Airports :

Daviess County Airport

Washington, Indiana, United States

latitude: 38-42-02N, longitude: 087-07-47W, elevation: 472 ft

Current weather observation

The report was made 27 minutes ago, at 22:15 UTC
Calm wind
Temperature 81°F
Humidity 45%
Pressure 30.14 in. Hg
Visibility: 10 miles
Overcast at a height of 11000 ft

METAR: KDCY 212215Z AUTO 00000KT 10SM OVC110 27/14 A3014 RMK AO2 T02720144

Time: 18:42 (22:42 UTC)


TAF: missing

Weather observations and forecasts of more than 4000 airports (METAR and TAF reports).

The available stations are represented by yellow and red dots on the map.

Hover mouse over dot to see the name of the station.

Then click to see weather observations and forecasts.

To change the map : click on the green buttons with a black cross to zoom in, on the green button with a dash to zoom out, or on the green arrows for adjacent maps.


METAR-TAF: